Regional Weather Roundup
Issued by NWS

Home | Current Version | Previous Version | Text Only | Print | Product List | Glossary Off
Versions: 1 2 3 4 5 6 7 8 9 10 11 12 13 14 15 16 17 18 19 20 21 22 23 24 25 26 27 28 29 30 31 32 33 34 35 36 37 38 39 40 41 42 43 44 45 46 47 48 49 50

000
ASUS43 KLSX 161357
RWRMO

WEATHER SUMMARY FOR MISSOURI
NATIONAL WEATHER SERVICE SPRINGFIELD MO
900 AM CDT MON OCT 16 2017

NOTE: "FAIR" INDICATES FEW OR NO CLOUDS BELOW 12,000 FEET WITH NO
       SIGNIFICANT WEATHER AND/OR OBSTRUCTIONS TO VISIBILITY.
       CURRENT SKY AND/OR WEATHER CONDITIONS ARE NOT AVAILABLE FOR
       CHILLICOTHE AND FARMINGTON.

MOZ001>031-035>038-043-044-053-054-161500-
...NORTHERN AND WESTERN MISSOURI...

CITY           SKY/WX    TMP DP  RH WIND       PRES   REMARKS
KANSAS CTY INT SUNNY     47  41  80 SW6       30.39S
LEE`S SUMMIT   SUNNY     48  41  76 SW6       30.41R
ST JOSEPH      SUNNY     42  42 100 CALM      30.39S
CHILLICOTHE      N/A     45  42  89 CALM      30.40R

$$
MOZ066>068-077>081-088>096-101>105-161500-
...SOUTHWEST MISSOURI...

CITY           SKY/WX    TMP DP  RH WIND       PRES   REMARKS
SPRINGFIELD    SUNNY     47  44  90 CALM      30.42R
JOPLIN         SUNNY     47  45  93 CALM      30.44R
BRANSON        SUNNY     48  41  76 CALM      30.44R

$$
MOZ032>034-039>042-045>050-055>058-069>072-161500-
...CENTRAL MISSOURI...

CITY           SKY/WX    TMP DP  RH WIND       PRES   REMARKS
COLUMBIA       NOT AVBL
JEFFERSON CITY FOG       44  42  93 CALM      30.41S VSB 1
ROLLA          SUNNY     48  43  82 CALM      30.42R
SEDALIA        SUNNY     50  41  71 SW6       30.42R
WARRENSBURG    SUNNY     45  41  87 CALM      30.41R

$$
MOZ051-052-059>065-161500-
...EAST CENTRAL MISSOURI...

CITY           SKY/WX    TMP DP  RH WIND       PRES   REMARKS
ST LOUIS INTL  SUNNY     50  46  86 W5        30.41R
ST CHARLES     PTSUNNY   45  45 100 CALM      30.40R

$$
MOZ072>076-082>087-097>100-106>115-161500-
...SOUTH CENTRAL AND SOUTHEAST MISSOURI...

CITY           SKY/WX    TMP DP  RH WIND       PRES   REMARKS
CAPE GIRARDEAU SUNNY     50  43  77 N5        30.40R
POPLAR BLUFF   SUNNY     51  44  77 N7        30.40R
WEST PLAINS    SUNNY     51  43  74 VRB3      30.42R

$$



USA.gov is the U.S. government's official web portal to all federal, state and local government web resources and services.